Find Kosmos-381

NORAD ID: 4783 Int'l Des: 1970-102 Owner: OKB10 Country: SU operational
LEOCIRCULAR

实时位置

正在加载3D地球...

关于 Kosmos-381

正在加载描述...

即将过境

Passes for default location (London). Set your location on the main map for personalized predictions.

高度历史

Loading altitude history...

两行轨道根数

1 04783U 70102A 26107.15009924 .00000009 00000-0 32992-4 0 9996
2 04783 74.0298 112.7156 0030067 147.4387 212.8596 13.75041045777764
Epoch: Apr 17, 2026 • Age: 14 hours

当前状态

高度 989.6 km
速度 7.36 km/s
星下点 54.23°N, 21.39°E
类型 other

Most Searched